Thermal, CA

1:45 AM PDT on July 26, 2017 (GMT -0700)
Desert Resorts Regional

Weather History for KTRM - November, 2012

Change the Weather History Date:

Saturday, November 24, 2012

  Actual Average Record
Temperature  
Mean Temperature 65 °F 57 °F  
Max Temperature 87 °F 75 °F 93 °F (1950)
Min Temperature 43 °F 39 °F 27 °F (1999)
Degree Days  
Heating Degree Days 0 8  
Month to date heating degree days 79 102  
Since 1 July heating degree days 79 113  
Cooling Degree Days 0 0  
Month to date cooling degree days 45 33  
Year to date cooling degree days 4274 3686  
Growing Degree Days 16 (Base 50)    
Moisture  
Dew Point 35 °F    
Average Humidity 39    
Maximum Humidity 65    
Minimum Humidity 13    
Precipitation  
Precipitation 0.00 in 0.00 in 0.89 in (1978)
Month to date precipitation T 0.16  
Year to date precipitation 2.40 2.78  
Since 1 July precipitation 2.04  
Snow  
Snow 0.00 in - - ()
Month to date snowfall 0.0  
Year to date snowfall 0.0  
Snow Depth 0.00 in    
Sea Level Pressure  
Sea Level Pressure 29.98 in    
Wind  
Wind Speed 4 mph (NNW)    
Max Wind Speed 8 mph    
Max Gust Speed 10 mph    
Visibility 10 miles    
Events      
T = Trace of Precipitation, MM = Missing Value Source: NWS Daily Summary

Daily Weather History Graph

Daily Weather History Graph

Search for Another Location

Airport or City:

Trip Planner

Search our weather history database for the weather conditions in past years. The results will help you decide how hot, cold, wet, or windy it might be!

Date:

Astronomy

Nov. 24, 2012 Rise Set
Actual Time 6:25 AM PST 4:37 PM PST
Civil Twilight 5:58 AM PST 5:04 PM PST
Nautical Twilight 5:27 AM PST 5:34 PM PST
Astronomical Twilight 4:57 AM PST 6:04 PM PST
Moon 2:17 PM PST (11/24) 2:54 AM PST (11/24)
Length of Visible Light 11h 06m
Length of Day
10h 12m
Waxing Gibbous, 88% of the Moon is Illuminated
Nov 24
Waxing Gibbous
Nov 28
Full
Dec 6
Last Quarter
Dec 13
New
Dec 19
First Quarter

Hourly Weather History & Observations

Time (PST) Temp. Windchill Dew Point Humidity Pressure Visibility Wind Dir Wind Speed Gust Speed Precip Events Conditions
12:52 AM 46.9 °F - 35.1 °F 63% 30.07 in 10.0 mi WNW 4.6 mph - N/A   Clear
1:52 AM 48.9 °F - 35.1 °F 59% 30.06 in 10.0 mi North 4.6 mph - N/A   Clear
2:52 AM 46.9 °F - 35.1 °F 63% 30.06 in 10.0 mi Calm Calm - N/A   Clear
3:52 AM 48.9 °F - 33.1 °F 54% 30.05 in 10.0 mi North 4.6 mph - N/A   Clear
4:52 AM 48.9 °F - 33.1 °F 54% 30.05 in 10.0 mi NW 3.5 mph - N/A   Clear
5:52 AM 45.0 °F 43.5 °F 33.1 °F 63% 30.05 in 10.0 mi NNE 3.5 mph - N/A   Clear
6:52 AM 44.1 °F - 33.1 °F 65% 30.06 in 10.0 mi Calm Calm - N/A   Clear
7:52 AM 60.1 °F - 34.0 °F 38% 30.07 in 10.0 mi NNW 5.8 mph - N/A   Clear
8:52 AM 69.1 °F - 33.1 °F 26% 30.07 in 10.0 mi NNW 5.8 mph - N/A   Clear
9:52 AM 75.9 °F - 36.0 °F 23% 30.06 in 10.0 mi NNW 3.5 mph - N/A   Clear
10:52 AM 81.0 °F - 30.9 °F 16% 30.03 in 10.0 mi NNW 3.5 mph - N/A   Clear
11:52 AM 84.9 °F - 28.9 °F 13% 29.99 in 10.0 mi Calm Calm - N/A   Clear
12:52 PM 86.0 °F - 30.0 °F 13% 29.96 in 10.0 mi SSE 4.6 mph - N/A   Clear
1:52 PM 87.1 °F - 34.0 °F 15% 29.93 in 10.0 mi South 6.9 mph - N/A   Clear
2:52 PM 84.0 °F - 34.0 °F 17% 29.91 in 10.0 mi ESE 6.9 mph - N/A   Clear
3:52 PM 81.0 °F - 36.0 °F 20% 29.91 in 10.0 mi SE 3.5 mph - N/A   Clear
4:52 PM 69.1 °F - 41.0 °F 36% 29.90 in 10.0 mi SW 3.5 mph - N/A   Clear
5:52 PM 61.0 °F - 41.0 °F 48% 29.91 in 10.0 mi West 3.5 mph - N/A   Clear
6:52 PM 57.0 °F - 42.1 °F 57% 29.91 in 10.0 mi Calm Calm - N/A   Clear
7:52 PM 59.0 °F - 43.0 °F 55% 29.91 in 10.0 mi Calm Calm - N/A   Clear
8:52 PM 60.1 °F - 36.0 °F 41% 29.92 in 10.0 mi North 5.8 mph - N/A   Clear
9:52 PM 54.0 °F - 37.9 °F 55% 29.92 in 10.0 mi Calm Calm - N/A   Clear
10:52 PM 53.1 °F - 37.9 °F 57% 29.91 in 10.0 mi North 5.8 mph - N/A   Clear
11:52 PM 55.0 °F - 36.0 °F 49% 29.90 in 5.0 mi NNW 3.5 mph - N/A   Haze